Ocean City, MD

11:33 PM EDT on July 24, 2017 (GMT -0400)
Ocean City Municipal

Weather History for KOXB - February, 2013

Change the Weather History Date:

Tuesday, February 12, 2013

  Actual Average (KSBY) Record (KSBY)
Temperature  
Mean Temperature 46 °F -  
Max Temperature 55 °F 43 °F 72 °F (1932)
Min Temperature 36 °F 24 °F 1 °F (1979)
Degree Days  
Heating Degree Days 20    
Moisture  
Dew Point 33 °F    
Average Humidity 67    
Maximum Humidity 97    
Minimum Humidity 35    
Precipitation  
Precipitation 0.00 in - - ()
Sea Level Pressure  
Sea Level Pressure 29.95 in    
Wind  
Wind Speed 4 mph (WNW)    
Max Wind Speed 17 mph    
Max Gust Speed 23 mph    
Visibility 10 miles    
Events      
Averages and records for this station are not official NWS values.
T = Trace of Precipitation, MM = Missing Value Source: NWS Daily Summary

Daily Weather History Graph

Daily Weather History Graph

Search for Another Location

Airport or City:

Trip Planner

Search our weather history database for the weather conditions in past years. The results will help you decide how hot, cold, wet, or windy it might be!

Date:

Astronomy

Feb. 12, 2013 Rise Set
Actual Time 6:54 AM EST 5:35 PM EST
Civil Twilight 6:26 AM EST 6:03 PM EST
Nautical Twilight 5:55 AM EST 6:34 PM EST
Astronomical Twilight 5:25 AM EST 7:04 PM EST
Moon 7:53 AM EST (2/12) 8:30 PM EST (2/12)
Length of Visible Light 11h 36m
Length of Day
10h 41m
Waxing Crescent, 7% of the Moon is Illuminated
Feb 12
Waxing Crescent
Feb 17
First Quarter
Feb 25
Full
Mar 4
Last Quarter
Mar 11
New

Hourly Weather History & Observations

Time (EST) Temp. Windchill Dew Point Humidity Pressure Visibility Wind Dir Wind Speed Gust Speed Precip Events Conditions
3:53 AM 39.9 °F - 37.0 °F 89% 29.86 in 10.0 mi Calm Calm - N/A   Clear
4:53 AM 36.0 °F - 35.1 °F 97% 29.88 in 10.0 mi Calm Calm - N/A   Clear
5:53 AM 37.9 °F 35.5 °F 37.0 °F 97% 29.91 in 8.0 mi WSW 3.5 mph - N/A   Clear
6:53 AM 39.0 °F 36.8 °F 35.1 °F 86% 29.94 in 10.0 mi West 3.5 mph - N/A   Clear
7:53 AM 45.0 °F 42.6 °F 32.0 °F 60% 29.96 in 10.0 mi NW 4.6 mph - N/A   Clear
8:53 AM 48.9 °F - 30.9 °F 50% 29.97 in 10.0 mi NW 6.9 mph - N/A   Clear
9:53 AM 51.1 °F - 28.9 °F 43% 29.97 in 10.0 mi NW 17.3 mph 23.0 mph N/A   Clear
10:53 AM 52.0 °F - 28.0 °F 40% 29.99 in 10.0 mi NW 13.8 mph 23.0 mph N/A   Clear
11:53 AM 54.0 °F - 28.9 °F 38% 29.99 in 10.0 mi WNW 15.0 mph 23.0 mph N/A   Clear
12:53 PM 54.0 °F - 28.9 °F 38% 29.98 in 10.0 mi NW 10.4 mph 20.7 mph N/A   Clear
1:53 PM 55.0 °F - 28.9 °F 37% 29.96 in 10.0 mi NW 9.2 mph 17.3 mph N/A   Clear
2:53 PM 55.0 °F - 28.0 °F 35% 29.92 in 10.0 mi Variable 5.8 mph 16.1 mph N/A   Clear
3:53 PM 54.0 °F - 28.9 °F 38% 29.96 in 10.0 mi WSW 9.2 mph - N/A   Clear
4:53 PM 48.9 °F - 36.0 °F 61% 29.97 in 10.0 mi SW 8.1 mph - N/A   Clear
5:53 PM 42.1 °F - 36.0 °F 79% 29.96 in 10.0 mi Calm Calm - N/A   Clear
6:53 PM 41.0 °F - 36.0 °F 82% 29.97 in 10.0 mi Calm Calm - N/A   Clear
7:53 PM 41.0 °F - 36.0 °F 82% 29.98 in 10.0 mi Calm Calm - N/A   Clear
8:53 PM 37.9 °F - 37.0 °F 97% 29.96 in 10.0 mi Calm Calm - N/A   Clear
9:53 PM 37.9 °F - 35.1 °F 89% 29.96 in 10.0 mi Calm Calm - N/A   Clear
10:53 PM 39.9 °F - 35.1 °F 83% 29.98 in 10.0 mi Calm Calm - N/A   Clear
11:53 PM 42.1 °F 39.2 °F 37.0 °F 82% 29.96 in 10.0 mi ENE 4.6 mph - N/A   Clear